,,Stat5,,Stat1,,Stat2,,Stat3,,Stat4,,Wind1,,Wind1,
time,status,PA1M_AVG,status,PR1M_SUM,status,RH1M_AVG,status,SR1M_AVG,status,TA1M_AVG,status,W1dAve1m,status,W1sAve1m,
2000-04-06, 00:00:00,VALID,917.625,VALID,0,VALID,98.6574,VALID,0.0339617,VALID,20.0188,VALID,54,VALID,0.0777027,
2000-04-06, 00:01:00,VALID,917.601,VALID,0,VALID,98.6981,VALID,0.0169808,VALID,20.0158,VALID,41,VALID,0,
2000-04-06, 00:02:00,VALID,917.595,VALID,0,VALID,98.7375,VALID,0.0169808,VALID,20.0161,VALID,39,VALID,0,
2000-04-06, 00:03:00,VALID,917.581,VALID,0,VALID,98.8062,VALID,0,VALID,20.0263,VALID,39,VALID,0,
2000-04-06, 00:04:00,VALID,917.587,VALID,0,VALID,98.8711,VALID,0.0339617,VALID,20.0451,VALID,43,VALID,0,
2000-04-06, 00:05:00,VALID,917.597,VALID,0,VALID,98.9168,VALID,0.0509425,VALID,20.0548,VALID,50,VALID,0,
2000-04-06, 00:06:00,VALID,917.61,VALID,0,VALID,98.9308,VALID,-0.0849042,VALID,20.079,VALID,50,VALID,0,
2000-04-06, 00:07:00,VALID,917.626,VALID,0,VALID,98.9461,VALID,-0.0679233,VALID,20.0852,VALID,50,VALID,0,
2000-04-06, 00:08:00,VALID,917.607,VALID,0,VALID,98.9563,VALID,-0.0849042,VALID,20.1085,VALID,50,VALID,0,
2000-04-06, 00:09:00,VALID,917.612,VALID,0,VALID,98.9563,VALID,-0.0849042,VALID,20.1016,VALID,50,VALID,0,
2000-04-06, 00:10:00,VALID,917.617,VALID,0,VALID,98.9703,VALID,-0.101885,VALID,20.1145,VALID,50,VALID,0,
2000-04-06, 00:11:00,VALID,917.605,VALID,0,VALID,98.9105,VALID,-0.0679233,VALID,20.1153,VALID,50,VALID,0,
2000-04-06, 00:12:00,VALID,917.578,VALID,0,VALID,98.8863,VALID,-0.101885,VALID,20.0819,VALID,198,VALID,0,
2000-04-06, 00:13:00,VALID,917.578,VALID,0,VALID,98.8825,VALID,-0.101885,VALID,20.0795,VALID,227,VALID,0,
2000-04-06, 00:14:00,VALID,917.576,VALID,0,VALID,98.8914,VALID,-0.0849042,VALID,20.069,VALID,219,VALID,0,
2000-04-06, 00:15:00,VALID,917.544,VALID,0,VALID,98.866,VALID,-0.0679233,VALID,20.066,VALID,214,VALID,0.000616776,
2000-04-06, 00:16:00,VALID,917.534,VALID,0,VALID,98.866,VALID,-0.0849042,VALID,20.0762,VALID,217,VALID,0.677951,
2000-04-06, 00:17:00,VALID,917.527,VALID,0,VALID,98.838,VALID,-0.0509425,VALID,20.0665,VALID,213,VALID,0.678571,
2000-04-06, 00:18:00,VALID,917.519,VALID,0,VALID,98.838,VALID,-0.101885,VALID,20.0603,VALID,220,VALID,0.59375,
2000-04-06, 00:19:00,VALID,917.52,VALID,0,VALID,98.8227,VALID,-0.101885,VALID,20.0506,VALID,231,VALID,0.63762,
2000-04-06, 00:20:00,VALID,917.537,VALID,0,VALID,98.7859,VALID,-0.101885,VALID,20.0337,VALID,228,VALID,0.371289,
2000-04-06, 00:21:00,VALID,917.518,VALID,0,VALID,98.7782,VALID,0.0339617,VALID,20.0317,VALID,220,VALID,0.617188,
2000-04-06, 00:22:00,VALID,917.506,VALID,0,VALID,98.7604,VALID,0.101885,VALID,20.025,VALID,213,VALID,0.234786,
2000-04-06, 00:23:00,VALID,917.494,VALID,0,VALID,98.7477,VALID,0.0509425,VALID,20.0188,VALID,174,VALID,0.102163,
2000-04-06, 00:24:00,VALID,917.472,VALID,0,VALID,98.7045,VALID,0.0339617,VALID,20.0156,VALID,164,VALID,0.0010016,
2000-04-06, 00:25:00,VALID,917.465,VALID,0,VALID,98.6981,VALID,0.0679233,VALID,20.0123,VALID,155,VALID,0.000200321,
2000-04-06, 00:26:00,VALID,917.464,VALID,0,VALID,98.693,VALID,0.0849042,VALID,20.0185,VALID,123,VALID,0,
2000-04-06, 00:27:00,VALID,917.454,VALID,0,VALID,98.6651,VALID,0.0509425,VALID,20.0317,VALID,119,VALID,0,
2000-04-06, 00:28:00,VALID,917.468,VALID,0,VALID,98.6752,VALID,-0.0169808,VALID,20.0456,VALID,103,VALID,0,
2000-04-06, 00:29:00,VALID,917.453,VALID,0,VALID,98.6142,VALID,0,VALID,20.0715,VALID,96,VALID,0,
2000-04-06, 00:30:00,VALID,917.437,VALID,0,VALID,98.5227,VALID,0,VALID,20.0618,VALID,105,VALID,0,
2000-04-06, 00:31:00,VALID,917.405,VALID,0,VALID,98.4972,VALID,0,VALID,20.0817,VALID,105,VALID,0,
2000-04-06, 00:32:00,VALID,917.381,VALID,0,VALID,98.44,VALID,-0.0169808,VALID,20.1011,VALID,112,VALID,0,
2000-04-06, 00:33:00,VALID,917.359,VALID,0,VALID,98.351,VALID,0,VALID,20.1075,VALID,116,VALID,0,
2000-04-06, 00:34:00,VALID,917.347,VALID,0,VALID,98.2098,VALID,0,VALID,20.1334,VALID,116,VALID,0,
2000-04-06, 00:35:00,VALID,917.346,VALID,0,VALID,98.0165,VALID,0,VALID,20.1366,VALID,116,VALID,0,
2000-04-06, 00:36:00,VALID,917.339,VALID,0,VALID,97.8322,VALID,-0.0169808,VALID,20.1301,VALID,116,VALID,0,
2000-04-06, 00:37:00,VALID,917.343,VALID,0,VALID,97.7088,VALID,-0.0509425,VALID,20.1105,VALID,115,VALID,0,
2000-04-06, 00:38:00,VALID,917.337,VALID,0,VALID,97.6923,VALID,-0.0849042,VALID,20.0976,VALID,115,VALID,0,
2000-04-06, 00:39:00,VALID,917.336,VALID,0,VALID,97.6389,VALID,-0.0509425,VALID,20.1078,VALID,115,VALID,0,
2000-04-06, 00:40:00,VALID,917.314,VALID,0,VALID,97.5054,VALID,-0.0339617,VALID,20.0817,VALID,113,VALID,0,
2000-04-06, 00:41:00,VALID,917.293,VALID,0,VALID,97.4634,VALID,-0.0169808,VALID,20.069,VALID,110,VALID,0,
2000-04-06, 00:42:00,VALID,917.267,VALID,0,VALID,97.4265,VALID,-0.0339617,VALID,20.0491,VALID,106,VALID,0,
2000-04-06, 00:43:00,VALID,917.267,VALID,0,VALID,97.4621,VALID,-0.0509425,VALID,20.0399,VALID,105,VALID,0,
2000-04-06, 00:44:00,VALID,917.232,VALID,0,VALID,97.4672,VALID,0,VALID,20.0233,VALID,105,VALID,0,
2000-04-06, 00:45:00,VALID,917.217,VALID,0,VALID,97.4914,VALID,-0.0339617,VALID,20.033,VALID,105,VALID,0,
2000-04-06, 00:46:00,VALID,917.201,VALID,0,VALID,97.5333,VALID,-0.0509425,VALID,20.0466,VALID,105,VALID,0,
2000-04-06, 00:47:00,VALID,917.177,VALID,0,VALID,97.5079,VALID,-0.0339617,VALID,20.0429,VALID,105,VALID,0,
2000-04-06, 00:48:00,VALID,917.162,VALID,0,VALID,97.424,VALID,-0.0169808,VALID,20.0365,VALID,92,VALID,0,
2000-04-06, 00:49:00,VALID,917.134,VALID,0,VALID,97.3286,VALID,0,VALID,20.0464,VALID,89,VALID,0,
2000-04-06, 00:50:00,VALID,917.117,VALID,0,VALID,97.2205,VALID,0,VALID,20.0166,VALID,89,VALID,0,
2000-04-06, 00:51:00,VALID,917.109,VALID,0,VALID,97.2472,VALID,-0.0339617,VALID,19.9843,VALID,89,VALID,0,
2000-04-06, 00:52:00,VALID,917.105,VALID,0,VALID,97.2167,VALID,0.0169808,VALID,19.9649,VALID,83,VALID,0,
2000-04-06, 00:53:00,VALID,917.095,VALID,0,VALID,97.3108,VALID,-0.0169808,VALID,19.9654,VALID,73,VALID,0.33861,
2000-04-06, 00:54:00,VALID,917.102,VALID,0,VALID,97.4443,VALID,-0.0169808,VALID,19.949,VALID,78,VALID,0.763822,
2000-04-06, 00:55:00,VALID,917.105,VALID,0,VALID,97.5473,VALID,-0.0169808,VALID,19.949,VALID,86,VALID,0.880409,
2000-04-06, 00:56:00,VALID,917.109,VALID,0,VALID,97.6402,VALID,0,VALID,19.9457,VALID,86,VALID,0.273015,
2000-04-06, 00:57:00,VALID,917.108,VALID,0,VALID,97.7292,VALID,-0.0339617,VALID,19.9584,VALID,92,VALID,1.0146,
2000-04-06, 00:58:00,VALID,917.104,VALID,0,VALID,97.7393,VALID,-0.0169808,VALID,19.9654,VALID,94,VALID,0.48097,
2000-04-06, 00:59:00,VALID,917.086,VALID,0,VALID,97.7686,VALID,-0.0169808,VALID,19.9589,VALID,89,VALID,0.525441,
2000-04-06, 01:00:00,VALID,917.083,VALID,0,VALID,97.8538,VALID,-0.0169808,VALID,19.9753,VALID,61,VALID,0.769072,
2000-04-06, 01:01:00,VALID,917.074,VALID,0,VALID,97.9492,VALID,-0.0169808,VALID,19.9788,VALID,74,VALID,0.593544,
2000-04-06, 01:02:00,VALID,917.082,VALID,0,VALID,97.9898,VALID,-0.0509425,VALID,19.985,VALID,70,VALID,0.848395,
2000-04-06, 01:03:00,VALID,917.066,VALID,0,VALID,98.0051,VALID,-0.0169808,VALID,19.9716,VALID,75,VALID,0.731771,
2000-04-06, 01:04:00,VALID,917.044,VALID,0,VALID,98.0305,VALID,-0.0169808,VALID,19.9716,VALID,86,VALID,0.767578,
2000-04-06, 01:05:00,VALID,917.034,VALID,0,VALID,98.0534,VALID,0,VALID,19.9517,VALID,67,VALID,0.775905,
2000-04-06, 01:06:00,VALID,917.024,VALID,0,VALID,98.0725,VALID,0,VALID,19.9395,VALID,55,VALID,0.923725,
2000-04-06, 01:07:00,VALID,917.013,VALID,0,VALID,98.1132,VALID,0,VALID,19.9129,VALID,39,VALID,0.626519,
2000-04-06, 01:08:00,VALID,917.005,VALID,0,VALID,98.1831,VALID,0,VALID,19.9296,VALID,67,VALID,0.29375,
2000-04-06, 01:09:00,VALID,917.002,VALID,0,VALID,98.1997,VALID,0,VALID,19.9229,VALID,80,VALID,0.575658,
2000-04-06, 01:10:00,VALID,916.988,VALID,0,VALID,98.1958,VALID,0,VALID,19.9291,VALID,85,VALID,0.169471,
2000-04-06, 01:11:00,VALID,916.965,VALID,0,VALID,98.1488,VALID,0,VALID,19.9296,VALID,92,VALID,0,
2000-04-06, 01:12:00,VALID,916.962,VALID,0,VALID,98.1017,VALID,0,VALID,19.9226,VALID,76,VALID,0,
2000-04-06, 01:13:00,VALID,916.955,VALID,0,VALID,98.0852,VALID,-0.0169808,VALID,19.9326,VALID,83,VALID,0,
2000-04-06, 01:14:00,VALID,916.944,VALID,0,VALID,97.9937,VALID,0,VALID,19.9231,VALID,88,VALID,0,
2000-04-06, 01:15:00,VALID,916.95,VALID,0,VALID,97.9759,VALID,0,VALID,19.9264,VALID,78,VALID,0,
2000-04-06, 01:16:00,VALID,916.961,VALID,0,VALID,98.0483,VALID,0.0169808,VALID,19.946,VALID,70,VALID,0.432893,
2000-04-06, 01:17:00,VALID,916.956,VALID,0,VALID,98.0051,VALID,0.0169808,VALID,19.9425,VALID,77,VALID,0.449908,
2000-04-06, 01:18:00,VALID,916.949,VALID,0,VALID,97.972,VALID,0.0169808,VALID,19.9393,VALID,63,VALID,0.606055,
2000-04-06, 01:19:00,VALID,916.927,VALID,0,VALID,98.0255,VALID,0,VALID,19.9587,VALID,69,VALID,0.575738,
2000-04-06, 01:20:00,VALID,916.898,VALID,0,VALID,97.9377,VALID,0.0339617,VALID,19.9616,VALID,88,VALID,0.729167,
2000-04-06, 01:21:00,VALID,916.869,VALID,0,VALID,97.8398,VALID,0.0169808,VALID,19.9589,VALID,90,VALID,0.641892,
2000-04-06, 01:22:00,VALID,916.831,VALID,0,VALID,97.7877,VALID,0,VALID,19.9651,VALID,90,VALID,0.563939,
2000-04-06, 01:23:00,VALID,916.806,VALID,0,VALID,97.7495,VALID,0.0169808,VALID,19.9554,VALID,100,VALID,0.129774,
2000-04-06, 01:24:00,VALID,916.786,VALID,0,VALID,97.6974,VALID,0.0169808,VALID,19.9554,VALID,103,VALID,0,
2000-04-06, 01:25:00,VALID,916.769,VALID,0,VALID,97.6363,VALID,0.0169808,VALID,19.9487,VALID,103,VALID,0,
2000-04-06, 01:26:00,VALID,916.759,VALID,0,VALID,97.6414,VALID,0,VALID,19.9621,VALID,103,VALID,0,
2000-04-06, 01:27:00,VALID,916.758,VALID,0,VALID,97.7203,VALID,0.0169808,VALID,19.9388,VALID,103,VALID,0,
2000-04-06, 01:28:00,VALID,916.747,VALID,0,VALID,97.8144,VALID,0,VALID,19.9462,VALID,103,VALID,0,
2000-04-06, 01:29:00,VALID,916.756,VALID,0,VALID,97.8983,VALID,0,VALID,19.9199,VALID,103,VALID,0,
2000-04-06, 01:30:00,VALID,916.759,VALID,0,VALID,97.9924,VALID,-0.0169808,VALID,19.9169,VALID,103,VALID,0,
2000-04-06, 01:31:00,VALID,916.76,VALID,0,VALID,98.0941,VALID,-0.0339617,VALID,19.9201,VALID,103,VALID,0,
2000-04-06, 01:32:00,VALID,916.757,VALID,0,VALID,98.1348,VALID,0,VALID,19.9169,VALID,103,VALID,0,
2000-04-06, 01:33:00,VALID,916.772,VALID,0,VALID,98.173,VALID,0,VALID,19.9067,VALID,103,VALID,0,
2000-04-06, 01:34:00,VALID,916.772,VALID,0,VALID,98.1958,VALID,-0.0169808,VALID,19.8973,VALID,103,VALID,0,
2000-04-06, 01:35:00,VALID,916.759,VALID,0,VALID,98.2073,VALID,0,VALID,19.8911,VALID,103,VALID,0,
2000-04-06, 01:36:00,VALID,916.752,VALID,0,VALID,98.1831,VALID,-0.0169808,VALID,19.8784,VALID,103,VALID,0,
2000-04-06, 01:37:00,VALID,916.734,VALID,0,VALID,98.1831,VALID,-0.0169808,VALID,19.8585,VALID,106,VALID,0,
2000-04-06, 01:38:00,VALID,916.723,VALID,0,VALID,98.1691,VALID,0,VALID,19.8588,VALID,238,VALID,0,
2000-04-06, 01:39:00,VALID,916.702,VALID,0,VALID,98.1831,VALID,-0.0169808,VALID,19.8558,VALID,249,VALID,0,
2000-04-06, 01:40:00,VALID,916.69,VALID,0,VALID,98.1526,VALID,0,VALID,19.8488,VALID,249,VALID,0,
2000-04-06, 01:41:00,VALID,916.682,VALID,0,VALID,98.1132,VALID,0,VALID,19.8235,VALID,249,VALID,0,
2000-04-06, 01:42:00,VALID,916.675,VALID,0,VALID,98.0115,VALID,0,VALID,19.7974,VALID,249,VALID,0,
2000-04-06, 01:43:00,VALID,916.671,VALID,0,VALID,97.8512,VALID,0,VALID,19.7621,VALID,249,VALID,0,
2000-04-06, 01:44:00,VALID,916.655,VALID,0,VALID,97.7521,VALID,-0.0169808,VALID,19.7328,VALID,245,VALID,0,
2000-04-06, 01:45:00,VALID,916.65,VALID,0,VALID,97.6605,VALID,0.0169808,VALID,19.7298,VALID,225,VALID,0,
2000-04-06, 01:46:00,VALID,916.637,VALID,0,VALID,97.513,VALID,0,VALID,19.7007,VALID,225,VALID,0,
2000-04-06, 01:47:00,VALID,916.613,VALID,0,VALID,97.5562,VALID,0.0339617,VALID,19.6938,VALID,225,VALID,0,
2000-04-06, 01:48:00,VALID,916.592,VALID,0,VALID,97.747,VALID,0,VALID,19.6975,VALID,225,VALID,0,
2000-04-06, 01:49:00,VALID,916.555,VALID,0,VALID,97.7864,VALID,0,VALID,19.6908,VALID,225,VALID,0,
2000-04-06, 01:50:00,VALID,916.545,VALID,0,VALID,97.8144,VALID,0,VALID,19.6883,VALID,225,VALID,0,
2000-04-06, 01:51:00,VALID,916.518,VALID,0,VALID,97.8449,VALID,0,VALID,19.658,VALID,225,VALID,0,
2000-04-06, 01:52:00,VALID,916.502,VALID,0,VALID,97.8894,VALID,0.0169808,VALID,19.6455,VALID,225,VALID,0,
2000-04-06, 01:53:00,VALID,916.494,VALID,0,VALID,97.8678,VALID,-0.0169808,VALID,19.6292,VALID,225,VALID,0,
2000-04-06, 01:54:00,VALID,916.503,VALID,0,VALID,97.9428,VALID,0,VALID,19.6232,VALID,227,VALID,0.00954861,
2000-04-06, 01:55:00,VALID,916.496,VALID,0,VALID,98.0267,VALID,0,VALID,19.613,VALID,253,VALID,0.139974,
2000-04-06, 01:56:00,VALID,916.503,VALID,0,VALID,98.0674,VALID,0,VALID,19.6003,VALID,255,VALID,0,
2000-04-06, 01:57:00,VALID,916.512,VALID,0,VALID,98.1475,VALID,0,VALID,19.6234,VALID,262,VALID,0,
2000-04-06, 01:58:00,VALID,916.52,VALID,0,VALID,98.2378,VALID,0,VALID,19.6329,VALID,263,VALID,0,
2000-04-06, 01:59:00,VALID,916.539,VALID,0,VALID,98.3268,VALID,0,VALID,19.6557,VALID,268,VALID,0,
2000-04-06, 02:00:00,VALID,916.54,VALID,0,VALID,98.3726,VALID,0,VALID,19.6622,VALID,271,VALID,0,
2000-04-06, 02:01:00,VALID,916.539,VALID,0,VALID,98.3484,VALID,0,VALID,19.6356,VALID,271,VALID,0,
2000-04-06, 02:02:00,VALID,916.524,VALID,0,VALID,98.3001,VALID,0,VALID,19.6331,VALID,271,VALID,0,
2000-04-06, 02:03:00,VALID,916.519,VALID,0,VALID,98.2416,VALID,-0.0169808,VALID,19.6272,VALID,271,VALID,0,
2000-04-06, 02:04:00,VALID,916.516,VALID,0,VALID,98.117,VALID,-0.0169808,VALID,19.5944,VALID,271,VALID,0,
2000-04-06, 02:05:00,VALID,916.476,VALID,0,VALID,97.864,VALID,0,VALID,19.5464,VALID,271,VALID,0,
2000-04-06, 02:06:00,VALID,916.461,VALID,0,VALID,97.6554,VALID,0.0169808,VALID,19.4942,VALID,241,VALID,0,
2000-04-06, 02:07:00,VALID,916.454,VALID,0,VALID,97.4075,VALID,0,VALID,19.452,VALID,100,VALID,0,
2000-04-06, 02:08:00,VALID,916.434,VALID,0,VALID,97.3579,VALID,0,VALID,19.4072,VALID,101,VALID,0,
2000-04-06, 02:09:00,VALID,916.42,VALID,0,VALID,97.4799,VALID,-0.0169808,VALID,19.3749,VALID,101,VALID,0,
2000-04-06, 02:10:00,VALID,916.404,VALID,0,VALID,97.6592,VALID,0,VALID,19.3422,VALID,101,VALID,0,
2000-04-06, 02:11:00,VALID,916.395,VALID,0,VALID,97.9504,VALID,0,VALID,19.3784,VALID,101,VALID,0,
2000-04-06, 02:12:00,VALID,916.391,VALID,0,VALID,98.276,VALID,-0.0169808,VALID,19.4333,VALID,101,VALID,0,
2000-04-06, 02:13:00,VALID,916.365,VALID,0,VALID,98.4756,VALID,0,VALID,19.4788,VALID,101,VALID,0,
2000-04-06, 02:14:00,VALID,916.36,VALID,0,VALID,98.515,VALID,0,VALID,19.4952,VALID,101,VALID,0,
2000-04-06, 02:15:00,VALID,916.352,VALID,0,VALID,98.3141,VALID,0,VALID,19.41,VALID,101,VALID,0,
2000-04-06, 02:16:00,VALID,916.336,VALID,0,VALID,98.2861,VALID,-0.0169808,VALID,19.3913,VALID,101,VALID,0,
2000-04-06, 02:17:00,VALID,916.325,VALID,0,VALID,98.3332,VALID,0,VALID,19.3774,VALID,101,VALID,0,
2000-04-06, 02:18:00,VALID,916.325,VALID,0,VALID,98.3357,VALID,0,VALID,19.3846,VALID,101,VALID,0,
2000-04-06, 02:19:00,VALID,916.321,VALID,0,VALID,98.3116,VALID,0,VALID,19.3712,VALID,101,VALID,0,
2000-04-06, 02:20:00,VALID,916.294,VALID,0,VALID,98.2709,VALID,-0.0169808,VALID,19.3682,VALID,101,VALID,0,
2000-04-06, 02:21:00,VALID,916.291,VALID,0,VALID,98.2607,VALID,0.0679233,VALID,19.3705,VALID,101,VALID,0,
2000-04-06, 02:22:00,VALID,916.28,VALID,0,VALID,98.2874,VALID,0.0849042,VALID,19.3668,VALID,101,VALID,0,
2000-04-06, 02:23:00,VALID,916.272,VALID,0,VALID,98.2327,VALID,0.101885,VALID,19.3603,VALID,101,VALID,0,
2000-04-06, 02:24:00,VALID,916.279,VALID,0,VALID,98.1704,VALID,0.101885,VALID,19.3578,VALID,101,VALID,0,
2000-04-06, 02:25:00,VALID,916.277,VALID,0,VALID,98.3116,VALID,0.0849042,VALID,19.3829,VALID,101,VALID,0,
2000-04-06, 02:26:00,VALID,916.252,VALID,0,VALID,98.5099,VALID,0.101885,VALID,19.4577,VALID,101,VALID,0,
2000-04-06, 02:27:00,VALID,916.241,VALID,0,VALID,98.6638,VALID,0.101885,VALID,19.5156,VALID,101,VALID,0,
2000-04-06, 02:28:00,VALID,916.23,VALID,0,VALID,98.707,VALID,0.101885,VALID,19.532,VALID,101,VALID,0,
2000-04-06, 02:29:00,VALID,916.205,VALID,0,VALID,98.7452,VALID,0.101885,VALID,19.538,VALID,101,VALID,0,
2000-04-06, 02:30:00,VALID,916.191,VALID,0,VALID,98.8189,VALID,0.0849042,VALID,19.5472,VALID,66,VALID,0,
2000-04-06, 02:31:00,VALID,916.16,VALID,0,VALID,98.866,VALID,0.101885,VALID,19.5705,VALID,319,VALID,0,
2000-04-06, 02:32:00,VALID,916.124,VALID,0,VALID,98.8965,VALID,0.101885,VALID,19.5703,VALID,319,VALID,0,
2000-04-06, 02:33:00,VALID,916.1,VALID,0,VALID,98.9118,VALID,0.101885,VALID,19.567,VALID,319,VALID,0,
2000-04-06, 02:34:00,VALID,916.07,VALID,0,VALID,98.9321,VALID,0.0849042,VALID,19.5705,VALID,299,VALID,0,
2000-04-06, 02:35:00,VALID,916.036,VALID,0,VALID,98.9448,VALID,0.101885,VALID,19.5772,VALID,298,VALID,0,
2000-04-06, 02:36:00,VALID,916.017,VALID,0,VALID,98.9423,VALID,0.0339617,VALID,19.5524,VALID,298,VALID,0,
2000-04-06, 02:37:00,VALID,915.998,VALID,0,VALID,98.8723,VALID,0,VALID,19.5134,VALID,298,VALID,0,
2000-04-06, 02:38:00,VALID,915.983,VALID,0,VALID,98.7655,VALID,0,VALID,19.4331,VALID,298,VALID,0,
2000-04-06, 02:39:00,VALID,915.979,VALID,0,VALID,98.571,VALID,-0.0169808,VALID,19.3459,VALID,298,VALID,0,
2000-04-06, 02:40:00,VALID,915.975,VALID,0,VALID,98.1958,VALID,0,VALID,19.2072,VALID,298,VALID,0,
2000-04-06, 02:41:00,VALID,915.969,VALID,0,VALID,98.1475,VALID,0,VALID,19.1516,VALID,297,VALID,0,
2000-04-06, 02:42:00,VALID,915.947,VALID,0,VALID,98.2035,VALID,0,VALID,19.129,VALID,297,VALID,0,
2000-04-06, 02:43:00,VALID,915.92,VALID,0,VALID,98.4184,VALID,0.0169808,VALID,19.129,VALID,297,VALID,0,
2000-04-06, 02:44:00,VALID,915.878,VALID,0,VALID,98.5951,VALID,0,VALID,19.1558,VALID,274,VALID,0,
2000-04-06, 02:45:00,VALID,915.829,VALID,0,VALID,98.8164,VALID,0,VALID,19.1744,VALID,236,VALID,0,
2000-04-06, 02:46:00,VALID,915.798,VALID,0,VALID,98.7871,VALID,0,VALID,19.1878,VALID,236,VALID,0,
2000-04-06, 02:47:00,VALID,915.748,VALID,0,VALID,98.7197,VALID,-0.0339617,VALID,19.1458,VALID,236,VALID,0,
2000-04-06, 02:48:00,VALID,915.706,VALID,0,VALID,98.5354,VALID,-0.0169808,VALID,19.0879,VALID,236,VALID,0,
2000-04-06, 02:49:00,VALID,915.681,VALID,0,VALID,98.2734,VALID,-0.0169808,VALID,18.962,VALID,230,VALID,0.221137,
2000-04-06, 02:50:00,VALID,915.661,VALID,0,VALID,98.3281,VALID,0,VALID,18.9068,VALID,226,VALID,0.684152,
2000-04-06, 02:51:00,VALID,915.641,VALID,0,VALID,98.5481,VALID,0,VALID,18.923,VALID,204,VALID,0.413035,
2000-04-06, 02:52:00,VALID,915.64,VALID,0,VALID,98.6969,VALID,0,VALID,18.9294,VALID,193,VALID,0.211538,
2000-04-06, 02:53:00,VALID,915.635,VALID,0,VALID,98.5265,VALID,0,VALID,18.8738,VALID,183,VALID,0.192188,
2000-04-06, 02:54:00,VALID,915.635,VALID,0,VALID,98.0941,VALID,0,VALID,18.7386,VALID,153,VALID,0.47389,
2000-04-06, 02:55:00,VALID,915.619,VALID,0,VALID,98.4324,VALID,0.0169808,VALID,18.7548,VALID,153,VALID,0.789679,
2000-04-06, 02:56:00,VALID,915.604,VALID,0,VALID,98.899,VALID,0,VALID,18.836,VALID,154,VALID,0.726362,
2000-04-06, 02:57:00,VALID,915.594,VALID,0,VALID,99.086,VALID,0,VALID,18.9101,VALID,171,VALID,0.504407,
2000-04-06, 02:58:00,VALID,915.591,VALID,0,VALID,98.9588,VALID,0.0169808,VALID,18.8974,VALID,197,VALID,0.471554,
2000-04-06, 02:59:00,VALID,915.588,VALID,0,VALID,98.9181,VALID,0,VALID,18.8519,VALID,217,VALID,0.532629,
2000-04-06, 03:00:00,VALID,915.567,VALID,0,VALID,98.9728,VALID,0,VALID,18.8226,VALID,232,VALID,0.514648,
2000-04-06, 03:01:00,VALID,915.553,VALID,0,VALID,99.0402,VALID,0,VALID,18.8199,VALID,219,VALID,0.525608,
2000-04-06, 03:02:00,VALID,915.537,VALID,0,VALID,99.1089,VALID,-0.0169808,VALID,18.8429,VALID,215,VALID,0.633898,
2000-04-06, 03:03:00,VALID,915.508,VALID,0,VALID,99.2335,VALID,0,VALID,18.8715,VALID,208,VALID,0.772382,
2000-04-06, 03:04:00,VALID,915.485,VALID,0,VALID,99.1941,VALID,0,VALID,18.8683,VALID,197,VALID,0.569079,
2000-04-06, 03:05:00,VALID,915.454,VALID,0,VALID,99.2843,VALID,0,VALID,18.8812,VALID,166,VALID,0.631944,
2000-04-06, 03:06:00,VALID,915.441,VALID,0,VALID,99.0961,VALID,0,VALID,18.7839,VALID,151,VALID,0.539063,
2000-04-06, 03:07:00,VALID,915.423,VALID,0,VALID,98.9054,VALID,-0.0169808,VALID,18.6586,VALID,131,VALID,0.624566,
2000-04-06, 03:08:00,VALID,915.415,VALID,0,VALID,98.6422,VALID,0,VALID,18.5197,VALID,130,VALID,0.677015,
2000-04-06, 03:09:00,VALID,915.392,VALID,0,VALID,98.5722,VALID,0,VALID,18.4392,VALID,139,VALID,0.654983,
2000-04-06, 03:10:00,VALID,915.386,VALID,0,VALID,98.9372,VALID,0,VALID,18.4681,VALID,155,VALID,0.657012,
2000-04-06, 03:11:00,VALID,915.398,VALID,0,VALID,99.2932,VALID,-0.0339617,VALID,18.6012,VALID,176,VALID,0.548633,
2000-04-06, 03:12:00,VALID,915.413,VALID,0,VALID,99.1496,VALID,0,VALID,18.591,VALID,206,VALID,0.616365,
2000-04-06, 03:13:00,VALID,915.433,VALID,0,VALID,99.1763,VALID,-0.0169808,VALID,18.5649,VALID,228,VALID,0.613809,
2000-04-06, 03:14:00,VALID,915.445,VALID,0,VALID,99.2704,VALID,-0.0339617,VALID,18.562,VALID,236,VALID,0.655469,
2000-04-06, 03:15:00,VALID,915.471,VALID,0,VALID,99.3721,VALID,-0.0169808,VALID,18.6076,VALID,236,VALID,1.02961,
2000-04-06, 03:16:00,VALID,915.466,VALID,0,VALID,99.4776,VALID,0.0169808,VALID,18.6782,VALID,231,VALID,0.813616,
2000-04-06, 03:17:00,VALID,915.472,VALID,0,VALID,99.5018,VALID,0,VALID,18.7071,VALID,226,VALID,0.694912,
2000-04-06, 03:18:00,VALID,915.473,VALID,0,VALID,99.5043,VALID,0,VALID,18.7456,VALID,229,VALID,0.125868,
2000-04-06, 03:19:00,VALID,915.472,VALID,0,VALID,99.4229,VALID,0,VALID,18.7234,VALID,209,VALID,0.0276605,
2000-04-06, 03:20:00,VALID,915.477,VALID,0,VALID,99.3428,VALID,0,VALID,18.6558,VALID,204,VALID,0,
2000-04-06, 03:21:00,VALID,915.494,VALID,0,VALID,99.4051,VALID,-0.0169808,VALID,18.6427,VALID,204,VALID,0,
2000-04-06, 03:22:00,VALID,915.513,VALID,0,VALID,99.306,VALID,0.0169808,VALID,18.5746,VALID,204,VALID,0,
2000-04-06, 03:23:00,VALID,915.511,VALID,0,VALID,99.2907,VALID,-0.0169808,VALID,18.5073,VALID,204,VALID,0,
2000-04-06, 03:24:00,VALID,915.523,VALID,0,VALID,99.3377,VALID,-0.0509425,VALID,18.4814,VALID,204,VALID,0,
2000-04-06, 03:25:00,VALID,915.523,VALID,0,VALID,99.4636,VALID,0,VALID,18.5006,VALID,204,VALID,0,
2000-04-06, 03:26:00,VALID,915.519,VALID,0,VALID,99.5348,VALID,0.0169808,VALID,18.5656,VALID,204,VALID,0,
2000-04-06, 03:27:00,VALID,915.505,VALID,0,VALID,99.3734,VALID,0,VALID,18.5036,VALID,204,VALID,0,
2000-04-06, 03:28:00,VALID,915.473,VALID,0,VALID,99.3581,VALID,-0.0169808,VALID,18.4492,VALID,188,VALID,0.0883413,
2000-04-06, 03:29:00,VALID,915.458,VALID,0,VALID,99.5209,VALID,-0.0169808,VALID,18.481,VALID,162,VALID,0.34565,
2000-04-06, 03:30:00,VALID,915.447,VALID,0,VALID,99.4764,VALID,-0.0169808,VALID,18.511,VALID,151,VALID,0.459704,
2000-04-06, 03:31:00,VALID,915.442,VALID,0,VALID,99.3161,VALID,0,VALID,18.3813,VALID,151,VALID,0.290264,
2000-04-06, 03:32:00,VALID,915.45,VALID,0,VALID,99.2411,VALID,-0.0169808,VALID,18.281,VALID,151,VALID,0.0432692,
2000-04-06, 03:33:00,VALID,915.458,VALID,0,VALID,99.2449,VALID,-0.0169808,VALID,18.2233,VALID,151,VALID,0,
2000-04-06, 03:34:00,VALID,915.462,VALID,0,VALID,99.4318,VALID,0,VALID,18.2358,VALID,151,VALID,0,
2000-04-06, 03:35:00,VALID,915.466,VALID,0,VALID,99.5946,VALID,0.0169808,VALID,18.3396,VALID,151,VALID,0,
2000-04-06, 03:36:00,VALID,915.459,VALID,0,VALID,99.648,VALID,-0.0169808,VALID,18.4141,VALID,151,VALID,0,
2000-04-06, 03:37:00,VALID,915.452,VALID,0,VALID,99.5704,VALID,0,VALID,18.4134,VALID,151,VALID,0,
2000-04-06, 03:38:00,VALID,915.436,VALID,0,VALID,99.3314,VALID,-0.0169808,VALID,18.2817,VALID,151,VALID,0,
2000-04-06, 03:39:00,VALID,915.429,VALID,0,VALID,99.1788,VALID,0,VALID,18.1389,VALID,151,VALID,0,
2000-04-06, 03:40:00,VALID,915.428,VALID,0,VALID,99.1267,VALID,0,VALID,18.0683,VALID,151,VALID,0,
2000-04-06, 03:41:00,VALID,915.434,VALID,0,VALID,99.1368,VALID,-0.0169808,VALID,18.0395,VALID,151,VALID,0,
2000-04-06, 03:42:00,VALID,915.447,VALID,0,VALID,99.1966,VALID,-0.0339617,VALID,18.0233,VALID,90,VALID,0.354646,
2000-04-06, 03:43:00,VALID,915.462,VALID,0,VALID,99.3021,VALID,0,VALID,18.0492,VALID,65,VALID,0.399639,
2000-04-06, 03:44:00,VALID,915.47,VALID,0,VALID,99.4713,VALID,-0.0169808,VALID,18.1324,VALID,75,VALID,0.514258,